KQA2259 FMEE-HKJK

Flight info

Callsign KQA2259
Flight time N/A
Altitude 36000
Route UVENA2J UVENA UN304 MAEVA UL433 ATOLA/N0452F370 UL433 KISAK/N0450F380 UL433 MOKAD UQ315 UTEPI UTEPI1A
Aircraft B738/M-SDE2E3FGHIRWXY/LB1

Departure

Time 2026-04-25 06:22
Airport Roland Garros Airport (FMEE)

Arrival

Time N/A
Airport Jomo Kenyatta International Airport (HKJK)
Time Latitude Longitude Altitude Speed Heading
2026-04-25 06:05 -20.89256 55.51636 81 ft 0 kts 206°
2026-04-25 06:14 -20.89246 55.51642 79 ft 2 kts 205°
2026-04-25 06:14 -20.89236 55.51647 71 ft 2 kts 206°
2026-04-25 06:14 -20.89222 55.51655 90 ft 2 kts 216°
2026-04-25 06:15 -20.89211 55.51667 87 ft 2 kts 242°
2026-04-25 06:15 -20.89205 55.51683 86 ft 2 kts 263°
2026-04-25 06:15 -20.89206 55.51701 85 ft 2 kts 289°
2026-04-25 06:15 -20.89209 55.51709 85 ft 0 kts 295°
2026-04-25 06:18 -20.89200 55.51688 86 ft 10 kts 295°
2026-04-25 06:18 -20.89158 55.51599 84 ft 15 kts 297°
2026-04-25 06:18 -20.89109 55.51494 67 ft 18 kts 296°
2026-04-25 06:19 -20.89053 55.51373 72 ft 18 kts 296°
2026-04-25 06:19 -20.88998 55.51258 72 ft 17 kts 298°
2026-04-25 06:19 -20.88914 55.51179 70 ft 17 kts 342°
2026-04-25 06:19 -20.88788 55.51132 58 ft 23 kts 339°
2026-04-25 06:20 -20.88708 55.51000 59 ft 22 kts 282°
2026-04-25 06:20 -20.88675 55.50843 52 ft 21 kts 282°
2026-04-25 06:20 -20.88645 55.50689 54 ft 21 kts 281°
2026-04-25 06:20 -20.88603 55.50548 52 ft 14 kts 306°
2026-04-25 06:21 -20.88602 55.50481 52 ft 11 kts 186°
2026-04-25 06:21 -20.88617 55.50550 50 ft 11 kts 97°
2026-04-25 06:21 -20.88619 55.50559 51 ft 0 kts 102°
2026-04-25 06:22 -20.88660 55.50763 51 ft 63 kts 102°
2026-04-25 06:22 -20.88799 55.51452 56 ft 125 kts 102°
2026-04-25 06:22 -20.89017 55.52534 214 ft 166 kts 103°
2026-04-25 06:22 -20.89264 55.53836 789 ft 182 kts 101°
2026-04-25 06:23 -20.89078 55.55141 1801 ft 187 kts 64°
2026-04-25 06:23 -20.87979 55.56007 2368 ft 221 kts 24°
2026-04-25 06:23 -20.86308 55.56104 2515 ft 257 kts
2026-04-25 06:23 -20.84506 55.56006 3045 ft 262 kts
2026-04-25 06:24 -20.82655 55.55965 3511 ft 272 kts
2026-04-25 06:24 -20.80713 55.55962 3975 ft 284 kts
2026-04-25 06:24 -20.78713 55.55970 4742 ft 288 kts
2026-04-25 06:24 -20.76750 55.55545 5628 ft 291 kts 341°
2026-04-25 06:25 -20.74874 55.54709 6487 ft 291 kts 340°
2026-04-25 06:25 -20.72997 55.53863 7233 ft 294 kts 339°
2026-04-25 06:25 -20.71082 55.53008 7817 ft 303 kts 340°
2026-04-25 06:25 -20.69139 55.52150 8452 ft 309 kts 340°
2026-04-25 06:26 -20.67162 55.51283 9350 ft 306 kts 340°
2026-04-25 06:26 -20.65192 55.50423 10190 ft 304 kts 340°
2026-04-25 06:26 -20.63193 55.49555 10643 ft 318 kts 340°
2026-04-25 06:26 -20.61066 55.48633 10813 ft 341 kts 340°
2026-04-25 06:27 -20.58803 55.47648 11028 ft 360 kts 339°
2026-04-25 06:27 -20.56446 55.46620 11412 ft 371 kts 339°
2026-04-25 06:27 -20.54038 55.45568 11916 ft 378 kts 340°
2026-04-25 06:27 -20.51612 55.44509 12709 ft 375 kts 339°
2026-04-25 06:28 -20.49198 55.43456 13400 ft 377 kts 339°
2026-04-25 06:28 -20.46760 55.42391 13999 ft 380 kts 339°
2026-04-25 06:28 -20.44296 55.41314 14530 ft 384 kts 339°
2026-04-25 06:28 -20.41820 55.40234 15105 ft 385 kts 339°
2026-04-25 06:29 -20.39323 55.39143 15621 ft 390 kts 339°
2026-04-25 06:29 -20.36798 55.38041 16137 ft 393 kts 339°
2026-04-25 06:29 -20.34259 55.36935 16686 ft 396 kts 338°
2026-04-25 06:29 -20.31696 55.35818 17185 ft 399 kts 339°
2026-04-25 06:30 -20.29104 55.34688 17630 ft 404 kts 339°
2026-04-25 06:30 -20.26539 55.33572 18288 ft 402 kts 338°
2026-04-25 06:30 -20.23937 55.32439 18729 ft 406 kts 339°
2026-04-25 06:30 -20.21296 55.31289 19013 ft 414 kts 338°
2026-04-25 06:31 -20.18626 55.30128 19499 ft 414 kts 338°
2026-04-25 06:31 -20.15953 55.28965 19962 ft 416 kts 338°
2026-04-25 06:31 -20.13248 55.27790 20228 ft 424 kts 338°
2026-04-25 06:31 -20.10509 55.26598 20654 ft 426 kts 338°
2026-04-25 06:32 -20.07751 55.25399 21006 ft 430 kts 337°
2026-04-25 06:32 -20.04955 55.24184 21301 ft 436 kts 338°
2026-04-25 06:32 -20.02155 55.22969 21813 ft 435 kts 337°
2026-04-25 06:32 -19.99336 55.21747 22150 ft 439 kts 337°
2026-04-25 06:33 -19.96490 55.20512 22434 ft 444 kts 337°
2026-04-25 06:33 -19.93619 55.19267 22803 ft 446 kts 337°
2026-04-25 06:33 -19.90737 55.18018 23138 ft 450 kts 337°
2026-04-25 06:33 -19.87828 55.16758 23471 ft 452 kts 337°
2026-04-25 06:34 -19.84905 55.15492 23800 ft 454 kts 337°
2026-04-25 06:34 -19.81982 55.14227 24146 ft 454 kts 337°
2026-04-25 06:34 -19.79048 55.12958 24452 ft 456 kts 337°
2026-04-25 06:34 -19.76105 55.11685 24728 ft 458 kts 337°
2026-04-25 06:35 -19.73143 55.10404 24994 ft 461 kts 337°
2026-04-25 06:35 -19.70172 55.09120 25277 ft 462 kts 337°
2026-04-25 06:35 -19.67186 55.07830 25563 ft 464 kts 337°
2026-04-25 06:35 -19.64188 55.06536 25829 ft 466 kts 337°
2026-04-25 06:36 -19.61180 55.05237 26106 ft 468 kts 337°
2026-04-25 06:36 -19.58161 55.03935 26375 ft 470 kts 337°
2026-04-25 06:36 -19.55126 55.02626 26628 ft 471 kts 337°
2026-04-25 06:36 -19.52079 55.01312 26864 ft 474 kts 337°
2026-04-25 06:37 -19.49020 54.99994 27081 ft 476 kts 336°
2026-04-25 06:37 -19.45941 54.98668 27316 ft 478 kts 336°
2026-04-25 06:37 -19.42853 54.97338 27581 ft 480 kts 336°
2026-04-25 06:37 -19.39761 54.96007 27842 ft 481 kts 336°
2026-04-25 06:38 -19.36656 54.94671 28094 ft 482 kts 336°
2026-04-25 06:38 -19.33582 54.93349 28323 ft 484 kts 336°
2026-04-25 06:38 -19.30459 54.92006 28562 ft 485 kts 336°
2026-04-25 06:38 -19.27327 54.90660 28787 ft 487 kts 336°
2026-04-25 06:39 -19.24181 54.89309 29021 ft 488 kts 336°
2026-04-25 06:39 -19.21030 54.87957 29281 ft 489 kts 336°
2026-04-25 06:39 -19.17876 54.86603 29525 ft 490 kts 336°
2026-04-25 06:39 -19.14721 54.85249 29769 ft 490 kts 336°
2026-04-25 06:40 -19.11561 54.83894 30065 ft 489 kts 336°
2026-04-25 06:40 -19.08410 54.82543 30373 ft 487 kts 336°
2026-04-25 06:40 -19.05278 54.81201 30697 ft 485 kts 336°
2026-04-25 06:40 -19.02154 54.79863 31006 ft 483 kts 336°
2026-04-25 06:41 -18.99149 54.78306 31252 ft 480 kts 322°
2026-04-25 06:41 -18.96656 54.76014 31498 ft 474 kts 313°
2026-04-25 06:41 -18.94308 54.73585 31902 ft 470 kts 313°
2026-04-25 06:41 -18.91974 54.71192 32312 ft 466 kts 313°
2026-04-25 06:42 -18.89644 54.68833 32664 ft 464 kts 313°
2026-04-25 06:42 -18.87305 54.66487 32932 ft 463 kts 314°
2026-04-25 06:42 -18.84962 54.64153 33167 ft 463 kts 314°
2026-04-25 06:42 -18.82615 54.61822 33445 ft 463 kts 314°
2026-04-25 06:43 -18.80274 54.59501 33757 ft 461 kts 314°
2026-04-25 06:43 -18.77944 54.57192 34049 ft 459 kts 314°
2026-04-25 06:43 -18.75619 54.54886 34284 ft 458 kts 314°
2026-04-25 06:43 -18.73297 54.52584 34511 ft 457 kts 314°
2026-04-25 06:44 -18.70985 54.50291 34750 ft 456 kts 314°
2026-04-25 06:44 -18.68680 54.48006 35053 ft 452 kts 314°
2026-04-25 06:44 -18.66394 54.45740 35360 ft 449 kts 314°
2026-04-25 06:44 -18.64120 54.43487 35568 ft 449 kts 314°
2026-04-25 06:45 -18.61840 54.41232 35730 ft 449 kts 314°
2026-04-25 06:45 -18.59343 54.39241 35874 ft 455 kts 330°
2026-04-25 06:45 -18.56459 54.37845 35978 ft 458 kts 333°
2026-04-25 06:46 -18.50595 54.35175 35961 ft 458 kts 333°
2026-04-25 06:46 -18.44795 54.32486 35960 ft 453 kts 333°
2026-04-25 06:47 -18.39099 54.29793 35961 ft 450 kts 332°
2026-04-25 06:47 -18.33402 54.27085 35965 ft 448 kts 332°
2026-04-25 06:48 -18.27719 54.24387 35965 ft 448 kts 332°
2026-04-25 06:48 -18.22033 54.21692 35971 ft 448 kts 332°
2026-04-25 06:49 -18.16340 54.18996 35964 ft 450 kts 332°
2026-04-25 06:49 -18.10627 54.16293 35962 ft 451 kts 332°
2026-04-25 06:50 -18.04897 54.13578 35966 ft 453 kts 332°
2026-04-25 06:50 -17.99145 54.10849 35967 ft 454 kts 332°
2026-04-25 06:51 -17.93382 54.08116 35962 ft 455 kts 332°
2026-04-25 06:51 -17.87608 54.05380 35962 ft 455 kts 332°
2026-04-25 06:52 -17.81834 54.02647 35961 ft 455 kts 332°
2026-04-25 06:52 -17.76064 53.99918 35960 ft 454 kts 332°
2026-04-25 06:53 -17.70308 53.97197 35968 ft 453 kts 332°
2026-04-25 06:53 -17.64571 53.94487 35966 ft 452 kts 332°
2026-04-25 06:54 -17.58848 53.91785 35966 ft 450 kts 332°
2026-04-25 06:54 -17.53143 53.89094 35961 ft 449 kts 332°
2026-04-25 06:55 -17.47455 53.86412 35961 ft 448 kts 332°
2026-04-25 06:55 -17.41773 53.83735 35967 ft 447 kts 332°
2026-04-25 06:56 -17.36101 53.81064 35967 ft 447 kts 332°
2026-04-25 06:56 -17.30429 53.78396 35963 ft 447 kts 332°
2026-04-25 06:57 -17.24754 53.75727 35961 ft 447 kts 332°
2026-04-25 06:57 -17.19077 53.73060 35965 ft 447 kts 332°
2026-04-25 06:58 -17.13438 53.70412 35961 ft 448 kts 332°
2026-04-25 06:58 -17.07752 53.67744 35961 ft 448 kts 332°
2026-04-25 06:59 -17.02057 53.65074 35963 ft 449 kts 332°
2026-04-25 06:59 -16.96362 53.62405 35965 ft 449 kts 332°
2026-04-25 07:00 -16.90663 53.59737 35957 ft 449 kts 332°
2026-04-25 07:00 -16.84965 53.57070 35960 ft 449 kts 332°
2026-04-25 07:01 -16.79263 53.54404 35960 ft 449 kts 332°
2026-04-25 07:01 -16.73562 53.51739 35958 ft 449 kts 332°
2026-04-25 07:02 -16.67863 53.49077 35958 ft 448 kts 333°
2026-04-25 07:02 -16.62170 53.46421 35957 ft 448 kts 333°
2026-04-25 07:03 -16.56486 53.43769 35961 ft 447 kts 333°
2026-04-25 07:03 -16.50805 53.41120 35958 ft 447 kts 333°
2026-04-25 07:04 -16.45134 53.38478 35952 ft 446 kts 333°
2026-04-25 07:04 -16.39626 53.35575 35952 ft 441 kts 322°
2026-04-25 07:05 -16.35077 53.31385 35964 ft 436 kts 313°
2026-04-25 07:05 -16.31525 53.27654 35952 ft 436 kts 312°
2026-04-25 07:06 -16.27248 53.23178 35953 ft 436 kts 313°
2026-04-25 07:06 -16.22950 53.18721 35960 ft 436 kts 313°
2026-04-25 07:07 -16.18637 53.14271 35959 ft 437 kts 313°
2026-04-25 07:07 -16.14315 53.09821 35955 ft 437 kts 313°
2026-04-25 07:08 -16.09987 53.05366 35955 ft 438 kts 313°
2026-04-25 07:08 -16.05651 53.00906 35957 ft 439 kts 313°
2026-04-25 07:09 -16.01310 52.96443 35947 ft 439 kts 313°
2026-04-25 07:09 -15.96966 52.91980 35958 ft 439 kts 313°
2026-04-25 07:10 -15.92614 52.87511 35954 ft 440 kts 313°
2026-04-25 07:10 -15.88260 52.83043 35955 ft 440 kts 313°
2026-04-25 07:11 -15.83901 52.78573 35955 ft 441 kts 313°
2026-04-25 07:11 -15.79568 52.74133 35957 ft 441 kts 313°
2026-04-25 07:12 -15.75203 52.69663 35955 ft 441 kts 313°
2026-04-25 07:12 -15.68657 52.62964 35957 ft 440 kts 313°
2026-04-25 07:13 -15.64298 52.58507 35953 ft 440 kts 313°
2026-04-25 07:13 -15.59939 52.54052 35954 ft 440 kts 313°
2026-04-25 07:14 -15.55578 52.49599 35955 ft 440 kts 313°
2026-04-25 07:14 -15.51220 52.45151 35957 ft 440 kts 313°
2026-04-25 07:15 -15.46863 52.40707 35956 ft 439 kts 313°
2026-04-25 07:15 -15.42505 52.36265 35956 ft 440 kts 313°
2026-04-25 07:16 -15.38142 52.31820 35954 ft 440 kts 313°
2026-04-25 07:16 -15.33780 52.27379 35947 ft 440 kts 313°
2026-04-25 07:17 -15.29415 52.22938 35957 ft 440 kts 314°
2026-04-25 07:17 -15.25052 52.18503 35956 ft 440 kts 314°
2026-04-25 07:18 -15.20687 52.14067 35956 ft 440 kts 314°
2026-04-25 07:18 -15.16323 52.09635 35956 ft 440 kts 314°
2026-04-25 07:19 -15.11953 52.05199 35957 ft 440 kts 314°
2026-04-25 07:19 -15.07587 52.00771 35955 ft 440 kts 314°
2026-04-25 07:20 -15.03221 51.96345 35958 ft 440 kts 314°
2026-04-25 07:20 -14.98849 51.91915 35958 ft 440 kts 314°
2026-04-25 07:21 -14.94480 51.87492 35964 ft 439 kts 314°
2026-04-25 07:21 -14.90112 51.83072 35954 ft 439 kts 314°
2026-04-25 07:22 -14.85751 51.78662 35956 ft 438 kts 314°
2026-04-25 07:22 -14.81425 51.74290 35959 ft 438 kts 314°
2026-04-25 07:23 -14.77075 51.69896 35958 ft 437 kts 314°
2026-04-25 07:23 -14.72731 51.65511 35959 ft 436 kts 314°
2026-04-25 07:24 -14.68390 51.61131 35956 ft 436 kts 314°
2026-04-25 07:24 -14.64049 51.56754 35953 ft 436 kts 314°
2026-04-25 07:25 -14.59714 51.52385 35961 ft 435 kts 314°
2026-04-25 07:25 -14.55380 51.48018 35958 ft 435 kts 314°
2026-04-25 07:26 -14.51043 51.43652 35956 ft 435 kts 314°
2026-04-25 07:26 -14.46678 51.39266 35961 ft 435 kts 314°
2026-04-25 07:27 -14.42335 51.34910 35959 ft 435 kts 314°
2026-04-25 07:27 -14.37996 51.30559 35956 ft 435 kts 314°
2026-04-25 07:28 -14.33653 51.26204 35960 ft 435 kts 314°
2026-04-25 07:28 -14.29306 51.21849 35959 ft 436 kts 314°
2026-04-25 07:29 -14.24961 51.17497 35958 ft 436 kts 314°
2026-04-25 07:29 -14.20611 51.13143 35958 ft 436 kts 314°
2026-04-25 07:30 -14.16258 51.08788 35959 ft 436 kts 314°
2026-04-25 07:30 -14.11904 51.04435 35959 ft 436 kts 314°
2026-04-25 07:31 -14.07549 51.00082 35959 ft 436 kts 314°
2026-04-25 07:31 -14.03219 50.95758 35958 ft 436 kts 314°
2026-04-25 07:32 -13.98860 50.91407 35959 ft 436 kts 314°
2026-04-25 07:32 -13.94501 50.87058 35964 ft 436 kts 314°
2026-04-25 07:33 -13.90143 50.82713 35961 ft 436 kts 314°
2026-04-25 07:33 -13.85786 50.78371 35957 ft 436 kts 314°
2026-04-25 07:34 -13.81435 50.74038 35956 ft 435 kts 314°
2026-04-25 07:34 -13.77089 50.69711 35961 ft 435 kts 314°
2026-04-25 07:35 -13.72746 50.65390 35962 ft 434 kts 314°
2026-04-25 07:35 -13.68406 50.61073 35957 ft 434 kts 314°
2026-04-25 07:36 -13.64067 50.56759 35956 ft 434 kts 314°
2026-04-25 07:36 -13.59732 50.52453 35959 ft 433 kts 314°
2026-04-25 07:37 -13.55400 50.48148 35961 ft 433 kts 314°
2026-04-25 07:37 -13.51072 50.43846 35957 ft 433 kts 314°
2026-04-25 07:38 -13.46744 50.39546 35958 ft 433 kts 314°
2026-04-25 07:38 -13.42414 50.35247 35957 ft 433 kts 314°
2026-04-25 07:39 -13.38084 50.30950 35947 ft 433 kts 314°
2026-04-25 07:39 -13.33751 50.26652 35948 ft 433 kts 314°
2026-04-25 07:40 -13.29415 50.22354 35960 ft 433 kts 314°
2026-04-25 07:40 -13.25076 50.18055 35948 ft 433 kts 314°
2026-04-25 07:41 -13.20764 50.13784 35943 ft 434 kts 314°
2026-04-25 07:41 -13.16423 50.09488 35947 ft 434 kts 315°
2026-04-25 07:42 -13.12079 50.05190 35941 ft 434 kts 314°
2026-04-25 07:42 -13.07739 50.00899 35948 ft 433 kts 315°
2026-04-25 07:43 -13.03395 49.96606 35954 ft 433 kts 315°
2026-04-25 07:43 -12.99056 49.92320 35955 ft 433 kts 315°
2026-04-25 07:44 -12.94715 49.88035 35942 ft 433 kts 315°
2026-04-25 07:44 -12.90380 49.83757 35942 ft 433 kts 315°
2026-04-25 07:45 -12.86043 49.79481 35935 ft 432 kts 315°
2026-04-25 07:45 -12.81708 49.75207 35942 ft 432 kts 315°
2026-04-25 07:46 -12.77372 49.70934 35943 ft 432 kts 315°
2026-04-25 07:46 -12.73036 49.66664 35936 ft 432 kts 315°
2026-04-25 07:47 -12.68701 49.62398 35941 ft 432 kts 315°
2026-04-25 07:47 -12.64391 49.58157 35942 ft 433 kts 315°
2026-04-25 07:48 -12.60051 49.53890 35945 ft 432 kts 315°
2026-04-25 07:48 -12.55711 49.49624 35937 ft 432 kts 315°
2026-04-25 07:49 -12.51369 49.45359 35931 ft 432 kts 315°
2026-04-25 07:49 -12.47034 49.41102 35917 ft 432 kts 315°
2026-04-25 07:50 -12.42698 49.36845 35920 ft 432 kts 315°
2026-04-25 07:50 -12.38363 49.32592 35913 ft 432 kts 315°
2026-04-25 07:51 -12.34056 49.28304 35908 ft 432 kts 311°
2026-04-25 07:51 -12.30146 49.23641 35913 ft 432 kts 309°
2026-04-25 07:52 -12.26315 49.18906 35916 ft 432 kts 309°
2026-04-25 07:52 -12.22464 49.14175 35924 ft 433 kts 309°
2026-04-25 07:53 -12.19244 49.10249 35926 ft 433 kts 309°
2026-04-25 07:53 -12.15362 49.05535 35920 ft 433 kts 309°
2026-04-25 07:54 -12.11477 49.00825 35928 ft 433 kts 309°
2026-04-25 07:54 -12.07594 48.96118 35929 ft 433 kts 309°
2026-04-25 07:55 -12.03710 48.91411 35926 ft 433 kts 309°
2026-04-25 07:55 -11.99831 48.86713 35928 ft 433 kts 309°
2026-04-25 07:56 -11.95950 48.82014 35935 ft 432 kts 309°
2026-04-25 07:56 -11.92074 48.77324 35935 ft 432 kts 309°
2026-04-25 07:57 -11.88199 48.72637 35931 ft 432 kts 309°
2026-04-25 07:57 -11.84325 48.67954 35935 ft 431 kts 309°
2026-04-25 07:58 -11.80454 48.63276 35937 ft 431 kts 309°
2026-04-25 07:58 -11.76583 48.58601 35937 ft 431 kts 309°
2026-04-25 07:59 -11.72736 48.53957 35933 ft 431 kts 309°
2026-04-25 07:59 -11.68859 48.49280 35935 ft 431 kts 309°
2026-04-25 08:00 -11.64982 48.44604 35938 ft 432 kts 309°
2026-04-25 08:00 -11.61107 48.39933 35940 ft 432 kts 309°
2026-04-25 08:01 -11.57225 48.35256 35939 ft 432 kts 309°
2026-04-25 08:01 -11.53340 48.30578 35933 ft 432 kts 309°
2026-04-25 08:02 -11.49454 48.25900 35938 ft 432 kts 309°
2026-04-25 08:02 -11.45567 48.21223 35934 ft 432 kts 309°
2026-04-25 08:03 -11.41678 48.16546 35935 ft 432 kts 309°
2026-04-25 08:03 -11.37785 48.11867 35937 ft 433 kts 309°
2026-04-25 08:04 -11.33894 48.07191 35938 ft 433 kts 309°
2026-04-25 08:04 -11.30000 48.02515 35938 ft 433 kts 309°
2026-04-25 08:05 -11.26107 47.97842 35933 ft 432 kts 309°
2026-04-25 08:05 -11.22215 47.93171 35934 ft 432 kts 309°
2026-04-25 08:06 -11.18324 47.88505 35937 ft 432 kts 310°
2026-04-25 08:06 -11.14434 47.83841 35937 ft 432 kts 310°
2026-04-25 08:07 -11.10544 47.79180 35931 ft 432 kts 310°
2026-04-25 08:07 -11.06654 47.74521 35933 ft 432 kts 310°
2026-04-25 08:08 -11.02766 47.69866 35935 ft 432 kts 310°
2026-04-25 08:08 -10.98877 47.65211 35935 ft 432 kts 310°
2026-04-25 08:09 -10.94985 47.60554 35936 ft 432 kts 310°
2026-04-25 08:09 -10.91093 47.55903 35934 ft 432 kts 310°
2026-04-25 08:10 -10.87196 47.51255 35934 ft 432 kts 310°
2026-04-25 08:10 -10.83321 47.46635 35935 ft 432 kts 310°
2026-04-25 08:11 -10.79421 47.41986 35935 ft 432 kts 310°
2026-04-25 08:11 -10.75519 47.37335 35934 ft 432 kts 310°
2026-04-25 08:12 -10.71616 47.32685 35935 ft 432 kts 310°
2026-04-25 08:12 -10.67709 47.28032 35935 ft 432 kts 310°
2026-04-25 08:13 -10.63803 47.23382 35935 ft 432 kts 310°
2026-04-25 08:14 -10.57941 47.16407 35934 ft 433 kts 310°
2026-04-25 08:14 -10.54032 47.11759 35933 ft 433 kts 310°
2026-04-25 08:15 -10.50120 47.07110 35929 ft 432 kts 310°
2026-04-25 08:15 -10.46216 47.02471 35933 ft 432 kts 310°
2026-04-25 08:16 -10.42308 46.97830 35932 ft 432 kts 310°
2026-04-25 08:16 -10.38409 46.93200 35931 ft 431 kts 310°
2026-04-25 08:17 -10.34510 46.88574 35928 ft 431 kts 310°
2026-04-25 08:17 -10.30614 46.83953 35929 ft 430 kts 310°
2026-04-25 08:18 -10.26720 46.79336 35933 ft 430 kts 310°
2026-04-25 08:18 -10.22831 46.74726 35931 ft 430 kts 310°
2026-04-25 08:19 -10.18944 46.70122 35929 ft 429 kts 310°
2026-04-25 08:19 -10.15056 46.65518 35929 ft 429 kts 310°
2026-04-25 08:20 -10.11173 46.60921 35929 ft 429 kts 310°
2026-04-25 08:20 -10.07285 46.56320 35928 ft 429 kts 310°
2026-04-25 08:21 -10.03402 46.51724 35929 ft 429 kts 310°
2026-04-25 08:21 -9.99509 46.47126 35932 ft 429 kts 310°
2026-04-25 08:22 -9.95559 46.42581 35929 ft 429 kts 311°
2026-04-25 08:22 -9.91582 46.38059 35929 ft 430 kts 311°
2026-04-25 08:23 -9.87607 46.33533 35929 ft 430 kts 311°
2026-04-25 08:23 -9.83636 46.29001 35926 ft 430 kts 311°
2026-04-25 08:24 -9.79665 46.24467 35930 ft 430 kts 311°
2026-04-25 08:24 -9.75691 46.19929 35929 ft 430 kts 311°
2026-04-25 08:25 -9.71718 46.15395 35934 ft 430 kts 311°
2026-04-25 08:25 -9.67741 46.10857 35925 ft 430 kts 311°
2026-04-25 08:26 -9.63765 46.06323 35928 ft 430 kts 311°
2026-04-25 08:26 -9.59789 46.01792 35928 ft 430 kts 311°
2026-04-25 08:27 -9.55814 45.97262 35929 ft 430 kts 311°
2026-04-25 08:27 -9.51836 45.92731 35927 ft 430 kts 311°
2026-04-25 08:28 -9.47861 45.88205 35928 ft 430 kts 311°
2026-04-25 08:28 -9.43887 45.83682 35928 ft 430 kts 311°
2026-04-25 08:29 -9.39911 45.79158 35932 ft 430 kts 311°
2026-04-25 08:29 -9.35937 45.74639 35931 ft 430 kts 311°
2026-04-25 08:30 -9.31964 45.70122 35928 ft 430 kts 311°
2026-04-25 08:30 -9.28017 45.65636 35929 ft 429 kts 311°
2026-04-25 08:31 -9.24018 45.61093 35928 ft 429 kts 311°
2026-04-25 08:31 -9.20071 45.56611 35926 ft 429 kts 311°
2026-04-25 08:32 -9.16098 45.52101 35928 ft 429 kts 311°
2026-04-25 08:32 -9.12099 45.47563 35929 ft 429 kts 311°
2026-04-25 08:33 -9.08129 45.43059 35926 ft 429 kts 311°
2026-04-25 08:33 -9.04187 45.38589 35926 ft 429 kts 311°
2026-04-25 08:34 -9.00218 45.34089 35929 ft 428 kts 312°
2026-04-25 08:34 -8.96251 45.29595 35932 ft 428 kts 312°
2026-04-25 08:35 -8.92282 45.25099 35927 ft 428 kts 312°
2026-04-25 08:35 -8.88313 45.20605 35929 ft 428 kts 312°
2026-04-25 08:36 -8.84344 45.16112 35928 ft 428 kts 312°
2026-04-25 08:36 -8.80376 45.11622 35931 ft 428 kts 312°
2026-04-25 08:37 -8.76409 45.07134 35932 ft 428 kts 312°
2026-04-25 08:37 -8.72440 45.02646 35931 ft 428 kts 312°
2026-04-25 08:38 -8.68471 44.98159 35932 ft 428 kts 312°
2026-04-25 08:38 -8.64501 44.93674 35930 ft 428 kts 312°
2026-04-25 08:39 -8.61202 44.89946 35934 ft 428 kts 312°
2026-04-25 08:39 -8.57230 44.85460 35925 ft 428 kts 312°
2026-04-25 08:40 -8.53253 44.80971 35930 ft 429 kts 312°
2026-04-25 08:40 -8.49275 44.76482 35932 ft 429 kts 312°
2026-04-25 08:41 -8.45293 44.71990 35932 ft 429 kts 312°
2026-04-25 08:41 -8.41310 44.67498 35932 ft 430 kts 312°
2026-04-25 08:42 -8.37321 44.63000 35935 ft 430 kts 312°
2026-04-25 08:42 -8.33327 44.58498 35935 ft 430 kts 312°
2026-04-25 08:43 -8.29360 44.54029 35932 ft 430 kts 312°
2026-04-25 08:43 -8.25366 44.49530 35932 ft 430 kts 312°
2026-04-25 08:44 -8.21372 44.45034 35934 ft 430 kts 312°
2026-04-25 08:44 -8.17381 44.40541 35936 ft 430 kts 312°
2026-04-25 08:45 -8.13389 44.36049 35927 ft 430 kts 312°
2026-04-25 08:45 -8.09401 44.31563 35932 ft 429 kts 312°
2026-04-25 08:46 -8.05414 44.27080 35929 ft 429 kts 312°
2026-04-25 08:46 -8.01427 44.22597 35929 ft 429 kts 312°
2026-04-25 08:47 -7.97437 44.18114 35934 ft 429 kts 312°
2026-04-25 08:47 -7.93448 44.13631 35931 ft 429 kts 312°
2026-04-25 08:48 -7.89458 44.09150 35924 ft 430 kts 313°
2026-04-25 08:48 -7.85463 44.04663 35933 ft 430 kts 313°
2026-04-25 08:49 -7.81463 44.00173 35939 ft 431 kts 312°
2026-04-25 08:49 -7.77480 43.95655 35932 ft 431 kts 312°
2026-04-25 08:50 -7.73508 43.91115 35927 ft 432 kts 312°
2026-04-25 08:50 -7.69531 43.86570 35929 ft 432 kts 312°
2026-04-25 08:51 -7.65553 43.82031 35926 ft 432 kts 312°
2026-04-25 08:51 -7.61568 43.77487 35933 ft 432 kts 312°
2026-04-25 08:52 -7.57581 43.72944 35934 ft 433 kts 312°
2026-04-25 08:52 -7.53594 43.68402 35932 ft 433 kts 312°
2026-04-25 08:53 -7.49603 43.63856 35936 ft 433 kts 312°
2026-04-25 08:53 -7.45615 43.59315 35936 ft 433 kts 312°
2026-04-25 08:54 -7.41626 43.54775 35922 ft 433 kts 312°
2026-04-25 08:54 -7.37635 43.50234 35934 ft 433 kts 312°
2026-04-25 08:55 -7.33674 43.45728 35931 ft 433 kts 312°
2026-04-25 08:55 -7.29683 43.41189 35938 ft 433 kts 312°
2026-04-25 08:56 -7.25693 43.36653 35935 ft 433 kts 312°
2026-04-25 08:56 -7.21705 43.32120 35933 ft 432 kts 312°
2026-04-25 08:57 -7.17716 43.27588 35924 ft 432 kts 312°
2026-04-25 08:57 -7.13728 43.23057 35932 ft 432 kts 312°
2026-04-25 08:58 -7.09737 43.18525 35936 ft 432 kts 312°
2026-04-25 08:58 -7.05748 43.13997 35934 ft 433 kts 312°
2026-04-25 08:59 -7.01754 43.09464 35929 ft 433 kts 312°
2026-04-25 08:59 -6.97760 43.04932 35931 ft 433 kts 312°
2026-04-25 09:00 -6.93766 43.00401 35927 ft 433 kts 312°
2026-04-25 09:00 -6.89774 42.95875 35934 ft 432 kts 312°
2026-04-25 09:01 -6.85780 42.91347 35936 ft 433 kts 312°
2026-04-25 09:01 -6.81781 42.86815 35932 ft 433 kts 312°
2026-04-25 09:02 -6.77779 42.82280 35933 ft 433 kts 313°
2026-04-25 09:02 -6.73776 42.77745 35931 ft 434 kts 313°
2026-04-25 09:03 -6.69771 42.73210 35926 ft 434 kts 313°
2026-04-25 09:03 -6.65752 42.68660 35936 ft 434 kts 313°
2026-04-25 09:04 -6.61744 42.64123 35933 ft 435 kts 312°
2026-04-25 09:04 -6.57718 42.59567 35940 ft 435 kts 313°
2026-04-25 09:05 -6.53688 42.55008 35927 ft 435 kts 313°
2026-04-25 09:05 -6.49665 42.50458 35933 ft 435 kts 313°
2026-04-25 09:06 -6.45668 42.45939 35934 ft 436 kts 313°
2026-04-25 09:06 -6.41635 42.41380 35939 ft 436 kts 313°
2026-04-25 09:07 -6.37579 42.36796 35934 ft 436 kts 313°
2026-04-25 09:07 -6.33579 42.32277 35927 ft 436 kts 313°
2026-04-25 09:08 -6.29554 42.27732 35936 ft 436 kts 313°
2026-04-25 09:08 -6.25503 42.23157 35927 ft 436 kts 313°
2026-04-25 09:09 -6.21497 42.18635 35939 ft 435 kts 313°
2026-04-25 09:09 -6.17509 42.14134 35925 ft 436 kts 313°
2026-04-25 09:10 -6.14162 42.10357 35938 ft 435 kts 313°
2026-04-25 09:10 -6.09449 42.05040 35932 ft 435 kts 313°
2026-04-25 09:11 -6.03409 41.98228 35936 ft 435 kts 313°
2026-04-25 09:11 -5.99404 41.93713 35931 ft 435 kts 313°
2026-04-25 09:12 -5.95391 41.89190 35932 ft 436 kts 313°
2026-04-25 09:12 -5.91353 41.84639 35933 ft 435 kts 313°
2026-04-25 09:13 -5.87320 41.80095 35933 ft 435 kts 313°
2026-04-25 09:13 -5.83320 41.75590 35938 ft 435 kts 313°
2026-04-25 09:14 -5.79294 41.71056 35926 ft 435 kts 313°
2026-04-25 09:14 -5.75271 41.66527 35933 ft 434 kts 313°
2026-04-25 09:15 -5.71248 41.61999 35926 ft 434 kts 313°
2026-04-25 09:15 -5.67229 41.57477 35926 ft 434 kts 313°
2026-04-25 09:16 -5.63212 41.52957 35932 ft 434 kts 313°
2026-04-25 09:16 -5.59193 41.48436 35940 ft 434 kts 313°
2026-04-25 09:17 -5.53156 41.41648 35938 ft 434 kts 313°
2026-04-25 09:18 -5.49138 41.37130 35935 ft 434 kts 313°
2026-04-25 09:18 -5.45110 41.32604 35933 ft 434 kts 313°
2026-04-25 09:19 -5.41081 41.28076 35922 ft 435 kts 313°
2026-04-25 09:19 -5.37051 41.23548 35940 ft 435 kts 313°
2026-04-25 09:20 -5.33018 41.19018 35931 ft 436 kts 313°
2026-04-25 09:20 -5.28978 41.14482 35937 ft 436 kts 313°
2026-04-25 09:21 -5.24936 41.09943 35939 ft 437 kts 313°
2026-04-25 09:21 -5.20884 41.05395 35933 ft 437 kts 313°
2026-04-25 09:22 -5.16838 41.00854 35932 ft 437 kts 313°
2026-04-25 09:22 -5.12789 40.96311 35933 ft 437 kts 313°
2026-04-25 09:23 -5.08738 40.91766 35940 ft 437 kts 313°
2026-04-25 09:23 -5.04687 40.87222 35938 ft 437 kts 313°
2026-04-25 09:24 -5.00639 40.82683 35933 ft 436 kts 313°
2026-04-25 09:24 -4.96590 40.78144 35935 ft 436 kts 313°
2026-04-25 09:25 -4.92551 40.73615 35937 ft 436 kts 313°
2026-04-25 09:25 -4.89190 40.69848 35928 ft 436 kts 313°
2026-04-25 09:26 -4.85145 40.65314 35936 ft 436 kts 313°
2026-04-25 09:26 -4.81058 40.60825 35933 ft 435 kts 316°
2026-04-25 09:27 -4.76665 40.56642 35959 ft 437 kts 319°
2026-04-25 09:27 -4.72218 40.52475 35936 ft 438 kts 318°
2026-04-25 09:28 -4.67835 40.48240 35932 ft 438 kts 314°
2026-04-25 09:28 -4.64398 40.43202 35945 ft 440 kts 301°
2026-04-25 09:29 -4.61471 40.37810 35935 ft 440 kts 300°
2026-04-25 09:29 -4.58545 40.32434 35942 ft 439 kts 300°
2026-04-25 09:30 -4.55590 40.27070 35932 ft 439 kts 300°
2026-04-25 09:30 -4.52632 40.21729 35943 ft 438 kts 301°
2026-04-25 09:31 -4.49668 40.16385 35942 ft 438 kts 301°
2026-04-25 09:31 -4.46711 40.11054 35938 ft 438 kts 301°
2026-04-25 09:32 -4.43754 40.05722 35937 ft 437 kts 301°
2026-04-25 09:32 -4.40803 40.00402 35938 ft 437 kts 301°
2026-04-25 09:33 -4.37853 39.95084 35941 ft 436 kts 301°
2026-04-25 09:33 -4.34907 39.89775 35932 ft 436 kts 301°
2026-04-25 09:34 -4.31962 39.84468 35944 ft 435 kts 301°
2026-04-25 09:34 -4.29041 39.79206 35949 ft 435 kts 301°
2026-04-25 09:35 -4.26103 39.73913 35946 ft 435 kts 300°
2026-04-25 09:35 -4.23142 39.68581 35945 ft 435 kts 300°
2026-04-25 09:36 -4.20206 39.63295 35949 ft 435 kts 300°
2026-04-25 09:36 -4.17265 39.58000 35942 ft 435 kts 300°
2026-04-25 09:37 -4.14176 39.52801 35938 ft 434 kts 308°
2026-04-25 09:37 -4.10084 39.48377 35938 ft 433 kts 315°
2026-04-25 09:38 -4.05852 39.44083 35940 ft 433 kts 315°
2026-04-25 09:38 -4.01635 39.39764 35953 ft 434 kts 315°
2026-04-25 09:39 -3.97430 39.35421 35963 ft 434 kts 315°
2026-04-25 09:39 -3.93231 39.31071 35971 ft 434 kts 315°
2026-04-25 09:40 -3.86941 39.24554 35970 ft 434 kts 315°
2026-04-25 09:40 -3.82751 39.20216 35983 ft 433 kts 315°
2026-04-25 09:41 -3.78571 39.15889 35987 ft 432 kts 315°
2026-04-25 09:41 -3.74393 39.11564 35969 ft 431 kts 315°
2026-04-25 09:42 -3.70230 39.07256 35968 ft 430 kts 315°
2026-04-25 09:42 -3.66067 39.02948 35975 ft 429 kts 315°
2026-04-25 09:43 -3.61914 38.98651 35972 ft 429 kts 315°
2026-04-25 09:43 -3.57769 38.94363 35970 ft 429 kts 315°
2026-04-25 09:44 -3.53620 38.90070 35975 ft 429 kts 315°
2026-04-25 09:44 -3.49473 38.85782 35967 ft 429 kts 315°
2026-04-25 09:45 -3.45328 38.81498 35987 ft 429 kts 315°
2026-04-25 09:45 -3.41175 38.77209 35968 ft 430 kts 315°
2026-04-25 09:46 -3.37014 38.72910 35989 ft 430 kts 315°
2026-04-25 09:46 -3.32846 38.68604 35979 ft 431 kts 315°
2026-04-25 09:47 -3.28669 38.64289 35982 ft 432 kts 315°
2026-04-25 09:47 -3.24488 38.59970 35987 ft 432 kts 315°
2026-04-25 09:48 -3.20320 38.55665 35983 ft 435 kts 315°
2026-04-25 09:48 -3.16099 38.51306 35977 ft 435 kts 315°
2026-04-25 09:49 -3.11890 38.46960 36001 ft 435 kts 315°
2026-04-25 09:49 -3.07677 38.42610 35991 ft 435 kts 315°
2026-04-25 09:50 -3.03468 38.38265 35995 ft 434 kts 315°
2026-04-25 09:50 -2.99273 38.33935 35985 ft 433 kts 315°
2026-04-25 09:51 -2.95087 38.29614 35997 ft 432 kts 315°
2026-04-25 09:51 -2.90909 38.25303 36005 ft 431 kts 315°
2026-04-25 09:52 -2.86733 38.20994 36007 ft 431 kts 315°
2026-04-25 09:52 -2.82552 38.16680 36009 ft 432 kts 315°
2026-04-25 09:53 -2.78368 38.12363 36013 ft 432 kts 315°
2026-04-25 09:53 -2.74198 38.08062 35904 ft 429 kts 315°
2026-04-25 09:54 -2.72129 38.05928 35609 ft 423 kts 315°
2026-04-25 09:54 -2.70099 38.03833 35220 ft 419 kts 315°
2026-04-25 09:54 -2.68077 38.01748 34859 ft 415 kts 315°
2026-04-25 09:54 -2.66069 37.99677 34468 ft 414 kts 315°
2026-04-25 09:55 -2.64073 37.97619 34091 ft 411 kts 315°
2026-04-25 09:55 -2.62082 37.95566 33627 ft 410 kts 315°
2026-04-25 09:55 -2.60106 37.93528 33245 ft 407 kts 315°
2026-04-25 09:55 -2.58139 37.91500 32838 ft 405 kts 315°
2026-04-25 09:56 -2.56184 37.89484 32470 ft 402 kts 315°
2026-04-25 09:56 -2.54239 37.87479 32081 ft 400 kts 315°
2026-04-25 09:56 -2.52305 37.85486 31715 ft 398 kts 315°
2026-04-25 09:56 -2.50385 37.83507 31327 ft 397 kts 314°
2026-04-25 09:57 -2.48462 37.81525 30945 ft 396 kts 314°
2026-04-25 09:57 -2.46549 37.79553 30570 ft 395 kts 314°
2026-04-25 09:57 -2.44641 37.77586 30197 ft 394 kts 314°
2026-04-25 09:57 -2.42730 37.75616 29768 ft 393 kts 314°
2026-04-25 09:58 -2.40835 37.73663 29378 ft 391 kts 314°
2026-04-25 09:58 -2.38949 37.71719 28966 ft 389 kts 315°
2026-04-25 09:58 -2.37073 37.69786 28591 ft 386 kts 315°
2026-04-25 09:58 -2.35213 37.67868 28210 ft 383 kts 315°
2026-04-25 09:59 -2.33358 37.65956 27828 ft 381 kts 315°
2026-04-25 09:59 -2.31518 37.64060 27452 ft 379 kts 315°
2026-04-25 09:59 -2.29685 37.62171 27086 ft 377 kts 315°
2026-04-25 09:59 -2.27865 37.60296 26725 ft 375 kts 316°
2026-04-25 10:00 -2.26049 37.58425 26343 ft 374 kts 315°
2026-04-25 10:00 -2.24241 37.56562 25970 ft 373 kts 316°
2026-04-25 10:00 -2.22437 37.54703 25595 ft 372 kts 316°
2026-04-25 10:00 -2.20641 37.52853 25214 ft 371 kts 316°
2026-04-25 10:01 -2.18843 37.51000 24849 ft 370 kts 316°
2026-04-25 10:01 -2.17054 37.49157 24481 ft 370 kts 316°
2026-04-25 10:01 -2.15255 37.47303 24105 ft 369 kts 316°
2026-04-25 10:01 -2.13470 37.45464 23732 ft 369 kts 316°
2026-04-25 10:02 -2.11683 37.43624 23301 ft 369 kts 316°
2026-04-25 10:02 -2.09902 37.41786 22876 ft 368 kts 316°
2026-04-25 10:02 -2.08119 37.39906 22261 ft 373 kts 315°
2026-04-25 10:02 -2.06341 37.38014 21832 ft 373 kts 315°
2026-04-25 10:03 -2.04575 37.36138 21468 ft 370 kts 315°
2026-04-25 10:03 -2.03018 37.34093 21077 ft 371 kts 298°
2026-04-25 10:03 -2.01941 37.31770 20782 ft 367 kts 296°
2026-04-25 10:03 -2.00895 37.29449 20417 ft 365 kts 296°
2026-04-25 10:04 -1.99850 37.27137 20064 ft 364 kts 296°
2026-04-25 10:04 -1.98806 37.24847 19694 ft 362 kts 296°
2026-04-25 10:04 -1.97755 37.22559 19359 ft 360 kts 296°
2026-04-25 10:04 -1.96708 37.20292 18994 ft 359 kts 296°
2026-04-25 10:05 -1.95657 37.18026 18636 ft 358 kts 296°
2026-04-25 10:05 -1.94612 37.15775 18268 ft 357 kts 296°
2026-04-25 10:05 -1.93572 37.13536 17892 ft 354 kts 296°
2026-04-25 10:05 -1.92537 37.11309 17525 ft 351 kts 296°
2026-04-25 10:06 -1.91513 37.09107 17170 ft 349 kts 296°
2026-04-25 10:06 -1.90494 37.06915 16828 ft 346 kts 296°
2026-04-25 10:06 -1.89483 37.04743 16483 ft 343 kts 296°
2026-04-25 10:06 -1.88482 37.02590 16150 ft 341 kts 296°
2026-04-25 10:07 -1.87486 37.00448 15812 ft 338 kts 296°
2026-04-25 10:07 -1.86499 36.98325 15488 ft 336 kts 296°
2026-04-25 10:07 -1.85516 36.96214 15138 ft 335 kts 296°
2026-04-25 10:07 -1.84536 36.94107 14795 ft 334 kts 296°
2026-04-25 10:08 -1.83890 36.92718 14567 ft 332 kts 296°
2026-04-25 10:08 -1.82917 36.90625 14245 ft 331 kts 296°
2026-04-25 10:08 -1.81949 36.88543 13917 ft 329 kts 296°
2026-04-25 10:08 -1.80985 36.86470 13533 ft 328 kts 296°
2026-04-25 10:09 -1.80028 36.84413 13177 ft 325 kts 296°
2026-04-25 10:09 -1.79078 36.82372 12848 ft 323 kts 296°
2026-04-25 10:09 -1.77929 36.80477 12492 ft 317 kts 315°
2026-04-25 10:09 -1.76160 36.79237 12217 ft 310 kts 339°
2026-04-25 10:10 -1.74095 36.78734 11888 ft 304 kts 359°
2026-04-25 10:10 -1.71996 36.78837 11600 ft 300 kts
2026-04-25 10:10 -1.69931 36.79072 11282 ft 299 kts
2026-04-25 10:10 -1.67871 36.79330 10960 ft 298 kts
2026-04-25 10:11 -1.65817 36.79585 10647 ft 297 kts